Year,Month,Day,Hour,Minute,Value (Times are PST for temperature in C)
2009,08,20,00,00,18.00
2009,08,20,00,01,17.90
2009,08,20,00,02,17.90
2009,08,20,00,03,17.90
2009,08,20,00,04,17.90
2009,08,20,00,05,17.90
2009,08,20,00,06,17.90
2009,08,20,00,07,17.90
2009,08,20,00,08,17.90
2009,08,20,00,09,17.80
2009,08,20,00,10,17.80
2009,08,20,00,11,17.80
2009,08,20,00,12,17.80
2009,08,20,00,13,17.80
2009,08,20,00,14,17.80
2009,08,20,00,15,17.80
2009,08,20,00,16,17.70
2009,08,20,00,17,17.70
2009,08,20,00,18,17.70
2009,08,20,00,19,17.70
2009,08,20,00,20,17.70
2009,08,20,00,21,17.70
2009,08,20,00,22,17.70
2009,08,20,00,23,17.70
2009,08,20,00,24,17.60
2009,08,20,00,25,17.60
2009,08,20,00,26,17.60
2009,08,20,00,27,17.50
2009,08,20,00,28,17.50
2009,08,20,00,29,17.50
2009,08,20,00,30,17.40
2009,08,20,00,31,17.40
2009,08,20,00,32,17.40
2009,08,20,00,33,17.40
2009,08,20,00,34,17.30
2009,08,20,00,35,17.30
2009,08,20,00,36,17.30
2009,08,20,00,37,17.30
2009,08,20,00,38,17.30
2009,08,20,00,39,17.20
2009,08,20,00,40,17.20
2009,08,20,00,41,17.20
2009,08,20,00,42,17.20
2009,08,20,00,43,17.20
2009,08,20,00,44,17.20
2009,08,20,00,45,17.20
2009,08,20,00,46,17.20
2009,08,20,00,47,17.20
2009,08,20,00,48,17.20
2009,08,20,00,49,17.20
2009,08,20,00,50,17.20
2009,08,20,00,51,17.20
2009,08,20,00,52,17.20
2009,08,20,00,53,17.20
2009,08,20,00,54,17.20
2009,08,20,00,55,17.20
2009,08,20,00,56,17.10
2009,08,20,00,57,17.10
2009,08,20,00,58,17.10
2009,08,20,00,59,17.10
2009,08,20,01,00,17.10
2009,08,20,01,01,17.10
2009,08,20,01,02,17.10
2009,08,20,01,03,17.10
2009,08,20,01,04,17.10
2009,08,20,01,05,17.20
2009,08,20,01,06,17.20
2009,08,20,01,07,17.20
2009,08,20,01,08,17.20
2009,08,20,01,09,17.20
2009,08,20,01,10,17.30
2009,08,20,01,11,17.30
2009,08,20,01,12,17.30
2009,08,20,01,13,17.30
2009,08,20,01,14,17.30
2009,08,20,01,15,17.30
2009,08,20,01,16,17.30
2009,08,20,01,17,17.30
2009,08,20,01,18,17.30
2009,08,20,01,19,17.30
2009,08,20,01,20,17.30
2009,08,20,01,21,17.30
2009,08,20,01,22,17.20
2009,08,20,01,23,17.20
2009,08,20,01,24,17.20
2009,08,20,01,25,17.20
2009,08,20,01,26,17.20
2009,08,20,01,27,17.20
2009,08,20,01,28,17.20
2009,08,20,01,29,17.20
2009,08,20,01,30,17.20
2009,08,20,01,31,17.20
2009,08,20,01,32,17.20
2009,08,20,01,33,17.20
2009,08,20,01,34,17.20
2009,08,20,01,35,17.20
2009,08,20,01,36,17.20
2009,08,20,01,37,17.20
2009,08,20,01,38,17.20
2009,08,20,01,39,17.10
2009,08,20,01,40,17.10
2009,08,20,01,41,17.10
2009,08,20,01,42,17.10
2009,08,20,01,43,17.10
2009,08,20,01,44,17.10
2009,08,20,01,45,17.20
2009,08,20,01,46,17.20
2009,08,20,01,47,17.20
2009,08,20,01,48,17.20
2009,08,20,01,49,17.20
2009,08,20,01,50,17.20
2009,08,20,01,51,17.20
2009,08,20,01,52,17.20
2009,08,20,01,53,17.20
2009,08,20,01,54,17.20
2009,08,20,01,55,17.20
2009,08,20,01,56,17.20
2009,08,20,01,57,17.10
2009,08,20,01,58,17.10
2009,08,20,01,59,17.10
2009,08,20,02,00,17.10
2009,08,20,02,01,17.10
2009,08,20,02,02,17.10
2009,08,20,02,03,17.20
2009,08,20,02,04,17.20
2009,08,20,02,05,17.30
2009,08,20,02,06,17.30
2009,08,20,02,07,17.30
2009,08,20,02,08,17.30
2009,08,20,02,09,17.30
2009,08,20,02,10,17.20
2009,08,20,02,11,17.20
2009,08,20,02,12,17.10
2009,08,20,02,13,17.10
2009,08,20,02,14,17.00
2009,08,20,02,15,16.90
2009,08,20,02,16,16.90
2009,08,20,02,17,16.90
2009,08,20,02,18,16.80
2009,08,20,02,19,16.80
2009,08,20,02,20,16.80
2009,08,20,02,21,16.80
2009,08,20,02,22,16.80
2009,08,20,02,23,16.80
2009,08,20,02,24,16.80
2009,08,20,02,25,16.80
2009,08,20,02,26,16.80
2009,08,20,02,27,16.80
2009,08,20,02,28,16.80
2009,08,20,02,29,16.80
2009,08,20,02,30,16.80
2009,08,20,02,31,16.80
2009,08,20,02,32,16.80
2009,08,20,02,33,16.80
2009,08,20,02,34,16.80
2009,08,20,02,35,16.80
2009,08,20,02,36,16.80
2009,08,20,02,37,16.80
2009,08,20,02,38,16.80
2009,08,20,02,39,16.80
2009,08,20,02,40,16.80
2009,08,20,02,41,16.80
2009,08,20,02,42,16.80
2009,08,20,02,43,16.80
2009,08,20,02,44,16.80
2009,08,20,02,45,16.80
2009,08,20,02,46,16.80
2009,08,20,02,47,16.80
2009,08,20,02,48,16.80
2009,08,20,02,49,16.90
2009,08,20,02,50,16.90
2009,08,20,02,51,16.90
2009,08,20,02,52,16.90
2009,08,20,02,53,16.90
2009,08,20,02,54,16.90
2009,08,20,02,55,16.90
2009,08,20,02,56,16.90
2009,08,20,02,57,16.90
2009,08,20,02,58,16.90
2009,08,20,02,59,16.90
2009,08,20,03,00,16.90
2009,08,20,03,01,16.90
2009,08,20,03,02,16.80
2009,08,20,03,03,16.80
2009,08,20,03,04,16.80
2009,08,20,03,05,16.80
2009,08,20,03,06,16.70
2009,08,20,03,07,16.70
2009,08,20,03,08,16.70
2009,08,20,03,09,16.70
2009,08,20,03,10,16.70
2009,08,20,03,11,16.70
2009,08,20,03,12,16.70
2009,08,20,03,13,16.70
2009,08,20,03,14,16.70
2009,08,20,03,15,16.70
2009,08,20,03,16,16.60
2009,08,20,03,17,16.60
2009,08,20,03,18,16.60
2009,08,20,03,19,16.60
2009,08,20,03,20,16.60
2009,08,20,03,21,16.60
2009,08,20,03,22,16.50
2009,08,20,03,23,16.50
2009,08,20,03,24,16.50
2009,08,20,03,25,16.50
2009,08,20,03,26,16.50
2009,08,20,03,27,16.50
2009,08,20,03,28,16.50
2009,08,20,03,29,16.50
2009,08,20,03,30,16.50
2009,08,20,03,31,16.50
2009,08,20,03,32,16.50
2009,08,20,03,33,16.50
2009,08,20,03,34,16.50
2009,08,20,03,35,16.50
2009,08,20,03,36,16.40
2009,08,20,03,37,16.40
2009,08,20,03,38,16.40
2009,08,20,03,39,16.50
2009,08,20,03,40,16.50
2009,08,20,03,41,16.50
2009,08,20,03,42,16.50
2009,08,20,03,43,16.40
2009,08,20,03,44,16.40
2009,08,20,03,45,16.40
2009,08,20,03,46,16.40
2009,08,20,03,47,16.40
2009,08,20,03,48,16.40
2009,08,20,03,49,16.40
2009,08,20,03,50,16.40
2009,08,20,03,51,16.40
2009,08,20,03,52,16.40
2009,08,20,03,53,16.40
2009,08,20,03,54,16.40
2009,08,20,03,55,16.40
2009,08,20,03,56,16.40
2009,08,20,03,57,16.40
2009,08,20,03,58,16.40
2009,08,20,03,59,16.40
2009,08,20,04,00,16.40
2009,08,20,04,01,16.40
2009,08,20,04,02,16.40
2009,08,20,04,03,16.40
2009,08,20,04,04,16.40
2009,08,20,04,05,16.40
2009,08,20,04,06,16.40
2009,08,20,04,07,16.40
2009,08,20,04,08,16.30
2009,08,20,04,09,16.30
2009,08,20,04,10,16.30
2009,08,20,04,11,16.30
2009,08,20,04,12,16.30
2009,08,20,04,13,16.20
2009,08,20,04,14,16.20
2009,08,20,04,15,16.20
2009,08,20,04,16,16.20
2009,08,20,04,17,16.20
2009,08,20,04,18,16.20
2009,08,20,04,19,16.20
2009,08,20,04,20,16.20
2009,08,20,04,21,16.20
2009,08,20,04,22,16.10
2009,08,20,04,23,16.10
2009,08,20,04,24,16.10
2009,08,20,04,25,16.10
2009,08,20,04,26,16.10
2009,08,20,04,27,16.10
2009,08,20,04,28,16.10
2009,08,20,04,29,16.10
2009,08,20,04,30,16.00
2009,08,20,04,31,16.00
2009,08,20,04,32,16.00
2009,08,20,04,33,16.00
2009,08,20,04,34,15.90
2009,08,20,04,35,15.90
2009,08,20,04,36,15.90
2009,08,20,04,37,15.90
2009,08,20,04,38,15.90
2009,08,20,04,39,15.90
2009,08,20,04,40,15.90
2009,08,20,04,41,15.90
2009,08,20,04,42,15.90
2009,08,20,04,43,15.90
2009,08,20,04,44,15.90
2009,08,20,04,45,15.90
2009,08,20,04,46,15.90
2009,08,20,04,47,15.90
2009,08,20,04,48,15.80
2009,08,20,04,49,15.80
2009,08,20,04,50,15.80
2009,08,20,04,51,15.80
2009,08,20,04,52,15.80
2009,08,20,04,53,15.90
2009,08,20,04,54,15.90
2009,08,20,04,55,15.90
2009,08,20,04,56,15.90
2009,08,20,04,57,15.90
2009,08,20,04,58,15.80
2009,08,20,04,59,15.90
2009,08,20,05,00,15.90
2009,08,20,05,01,15.90
2009,08,20,05,02,15.90
2009,08,20,05,03,15.90
2009,08,20,05,04,15.90
2009,08,20,05,05,15.90
2009,08,20,05,06,15.90
2009,08,20,05,07,15.90
2009,08,20,05,08,15.90
2009,08,20,05,09,15.90
2009,08,20,05,10,15.90
2009,08,20,05,11,15.90
2009,08,20,05,12,15.90
2009,08,20,05,13,15.80
2009,08,20,05,14,15.80
2009,08,20,05,15,15.80
2009,08,20,05,16,15.80
2009,08,20,05,17,15.70
2009,08,20,05,18,15.70
2009,08,20,05,19,15.70
2009,08,20,05,20,15.70
2009,08,20,05,21,15.70
2009,08,20,05,22,15.70
2009,08,20,05,23,15.60
2009,08,20,05,24,15.60
2009,08,20,05,25,15.60
2009,08,20,05,26,15.60
2009,08,20,05,27,15.60
2009,08,20,05,28,15.60
2009,08,20,05,29,15.60
2009,08,20,05,30,15.60
2009,08,20,05,31,15.60
2009,08,20,05,32,15.60
2009,08,20,05,33,15.60
2009,08,20,05,34,15.60
2009,08,20,05,35,15.70
2009,08,20,05,36,15.70
2009,08,20,05,37,15.60
2009,08,20,05,38,15.60
2009,08,20,05,39,15.60
2009,08,20,05,40,15.60
2009,08,20,05,41,15.60
2009,08,20,05,42,15.50
2009,08,20,05,43,15.50
2009,08,20,05,44,15.50
2009,08,20,05,45,15.50
2009,08,20,05,46,15.50
2009,08,20,05,47,15.50
2009,08,20,05,48,15.50
2009,08,20,05,49,15.50
2009,08,20,05,50,15.40
2009,08,20,05,51,15.40
2009,08,20,05,52,15.40
2009,08,20,05,53,15.40
2009,08,20,05,54,15.40
2009,08,20,05,55,15.40
2009,08,20,05,56,15.40
2009,08,20,05,57,15.40
2009,08,20,05,58,15.40
2009,08,20,05,59,15.40
2009,08,20,06,00,15.40
2009,08,20,06,01,15.40
2009,08,20,06,02,15.40
2009,08,20,06,03,15.40
2009,08,20,06,04,15.40
2009,08,20,06,05,15.30
2009,08,20,06,06,15.30
2009,08,20,06,07,15.30
2009,08,20,06,08,15.30
2009,08,20,06,09,15.30
2009,08,20,06,10,15.30
2009,08,20,06,11,15.30
2009,08,20,06,12,15.30
2009,08,20,06,13,15.30
2009,08,20,06,14,15.30
2009,08,20,06,15,15.30
2009,08,20,06,16,15.30
2009,08,20,06,17,15.30
2009,08,20,06,18,15.30
2009,08,20,06,19,15.30
2009,08,20,06,20,15.30
2009,08,20,06,21,15.30
2009,08,20,06,22,15.30
2009,08,20,06,23,15.20
2009,08,20,06,24,15.20
2009,08,20,06,25,15.20
2009,08,20,06,26,15.20
2009,08,20,06,27,15.20
2009,08,20,06,28,15.20
2009,08,20,06,29,15.20
2009,08,20,06,30,15.20
2009,08,20,06,31,15.20
2009,08,20,06,32,15.20
2009,08,20,06,33,15.20
2009,08,20,06,34,15.10
2009,08,20,06,35,15.10
2009,08,20,06,36,15.10
2009,08,20,06,37,15.10
2009,08,20,06,38,15.00
2009,08,20,06,39,15.00
2009,08,20,06,40,15.00
2009,08,20,06,41,15.00
2009,08,20,06,42,15.00
2009,08,20,06,43,15.00
2009,08,20,06,44,15.00
2009,08,20,06,45,15.00
2009,08,20,06,46,15.00
2009,08,20,06,47,15.00
2009,08,20,06,48,15.00
2009,08,20,06,49,15.00
2009,08,20,06,50,15.00
2009,08,20,06,51,15.00
2009,08,20,06,52,15.00
2009,08,20,06,53,15.00
2009,08,20,06,54,15.00
2009,08,20,06,55,15.00
2009,08,20,06,56,15.00
2009,08,20,06,57,15.00
2009,08,20,06,58,15.00
2009,08,20,06,59,15.00
2009,08,20,07,00,15.00
2009,08,20,07,01,15.00
2009,08,20,07,02,15.00
2009,08,20,07,03,15.00
2009,08,20,07,04,15.00
2009,08,20,07,05,15.00
2009,08,20,07,06,15.10
2009,08,20,07,07,15.10
2009,08,20,07,08,15.10
2009,08,20,07,09,15.10
2009,08,20,07,10,15.10
2009,08,20,07,11,15.20
2009,08,20,07,12,15.20
2009,08,20,07,13,15.20
2009,08,20,07,14,15.20
2009,08,20,07,15,15.20
2009,08,20,07,16,15.30
2009,08,20,07,17,15.30
2009,08,20,07,18,15.30
2009,08,20,07,19,15.40
2009,08,20,07,20,15.50
2009,08,20,07,21,15.50
2009,08,20,07,22,15.60
2009,08,20,07,23,15.60
2009,08,20,07,24,15.60
2009,08,20,07,25,15.60
2009,08,20,07,26,15.60
2009,08,20,07,27,15.70
2009,08,20,07,28,15.70
2009,08,20,07,29,15.70
2009,08,20,07,30,15.70
2009,08,20,07,31,15.70
2009,08,20,07,32,15.70
2009,08,20,07,33,15.70
2009,08,20,07,34,15.80
2009,08,20,07,35,15.80
2009,08,20,07,36,15.90
2009,08,20,07,37,15.90
2009,08,20,07,38,15.90
2009,08,20,07,39,16.00
2009,08,20,07,40,16.10
2009,08,20,07,41,16.10
2009,08,20,07,42,16.20
2009,08,20,07,43,16.20
2009,08,20,07,44,16.20
2009,08,20,07,45,16.30
2009,08,20,07,46,16.30
2009,08,20,07,47,16.40
2009,08,20,07,48,16.40
2009,08,20,07,49,16.50
2009,08,20,07,50,16.60
2009,08,20,07,51,16.70
2009,08,20,07,52,16.70
2009,08,20,07,53,16.80
2009,08,20,07,54,16.90
2009,08,20,07,55,17.00
2009,08,20,07,56,17.10
2009,08,20,07,57,17.10
2009,08,20,07,58,17.20
2009,08,20,07,59,17.30
2009,08,20,08,00,17.30
2009,08,20,08,01,17.40
2009,08,20,08,02,17.50
2009,08,20,08,03,17.50
2009,08,20,08,04,17.60
2009,08,20,08,05,17.60
2009,08,20,08,06,17.70
2009,08,20,08,07,17.80
2009,08,20,08,08,17.80
2009,08,20,08,09,17.90
2009,08,20,08,10,17.90
2009,08,20,08,11,18.00
2009,08,20,08,12,18.10
2009,08,20,08,13,18.20
2009,08,20,08,14,18.20
2009,08,20,08,15,18.30
2009,08,20,08,16,18.30
2009,08,20,08,17,18.30
2009,08,20,08,18,18.40
2009,08,20,08,19,18.50
2009,08,20,08,20,18.50
2009,08,20,08,21,18.60
2009,08,20,08,22,18.70
2009,08,20,08,23,18.70
2009,08,20,08,24,18.80
2009,08,20,08,25,18.80
2009,08,20,08,26,18.90
2009,08,20,08,27,19.00
2009,08,20,08,28,19.00
2009,08,20,08,29,19.10
2009,08,20,08,30,19.10
2009,08,20,08,31,19.20
2009,08,20,08,32,19.30
2009,08,20,08,33,19.30
2009,08,20,08,34,19.40
2009,08,20,08,35,19.40
2009,08,20,08,36,19.50
2009,08,20,08,37,19.60
2009,08,20,08,38,19.70
2009,08,20,08,39,19.80
2009,08,20,08,40,19.90
2009,08,20,08,41,20.00
2009,08,20,08,42,20.10
2009,08,20,08,43,20.30
2009,08,20,08,44,20.40
2009,08,20,08,45,20.50
2009,08,20,08,46,20.70
2009,08,20,08,47,20.80
2009,08,20,08,48,21.00
2009,08,20,08,49,21.10
2009,08,20,08,50,21.20
2009,08,20,08,51,21.30
2009,08,20,08,52,21.40
2009,08,20,08,53,21.40
2009,08,20,08,54,21.50
2009,08,20,08,55,21.60
2009,08,20,08,56,21.60
2009,08,20,08,57,21.70
2009,08,20,08,58,21.70
2009,08,20,08,59,21.80
2009,08,20,09,00,21.80
2009,08,20,09,01,21.90
2009,08,20,09,02,22.00
2009,08,20,09,03,22.00
2009,08,20,09,04,22.10
2009,08,20,09,05,22.10
2009,08,20,09,06,22.10
2009,08,20,09,07,22.10
2009,08,20,09,08,22.10
2009,08,20,09,09,22.10
2009,08,20,09,10,22.10
2009,08,20,09,11,22.20
2009,08,20,09,12,22.20
2009,08,20,09,13,22.20
2009,08,20,09,14,22.20
2009,08,20,09,15,22.30
2009,08,20,09,16,22.40
2009,08,20,09,17,22.40
2009,08,20,09,18,22.50
2009,08,20,09,19,22.50
2009,08,20,09,20,22.60
2009,08,20,09,21,22.60
2009,08,20,09,22,22.70
2009,08,20,09,23,22.70
2009,08,20,09,24,22.70
2009,08,20,09,25,22.70
2009,08,20,09,26,22.70
2009,08,20,09,27,22.70
2009,08,20,09,28,22.70
2009,08,20,09,29,22.70
2009,08,20,09,30,22.70
2009,08,20,09,31,22.70
2009,08,20,09,32,22.70
2009,08,20,09,33,22.80
2009,08,20,09,34,22.80
2009,08,20,09,35,22.80
2009,08,20,09,36,22.80
2009,08,20,09,37,22.80
2009,08,20,09,38,22.80
2009,08,20,09,39,22.90
2009,08,20,09,40,23.00
2009,08,20,09,41,23.00
2009,08,20,09,42,23.10
2009,08,20,09,43,23.10
2009,08,20,09,44,23.10
2009,08,20,09,45,23.00
2009,08,20,09,46,23.10
2009,08,20,09,47,23.20
2009,08,20,09,48,23.20
2009,08,20,09,49,23.30
2009,08,20,09,50,23.40
2009,08,20,09,51,23.40
2009,08,20,09,52,23.40
2009,08,20,09,53,23.40
2009,08,20,09,54,23.50
2009,08,20,09,55,23.50
2009,08,20,09,56,23.60
2009,08,20,09,57,23.70
2009,08,20,09,58,23.70
2009,08,20,09,59,23.80
2009,08,20,10,00,23.80
2009,08,20,10,01,23.90
2009,08,20,10,02,24.00
2009,08,20,10,03,24.00
2009,08,20,10,04,24.00
2009,08,20,10,05,23.90
2009,08,20,10,06,24.00
2009,08,20,10,07,24.10
2009,08,20,10,08,24.10
2009,08,20,10,09,24.20
2009,08,20,10,10,24.20
2009,08,20,10,11,24.20
2009,08,20,10,12,24.30
2009,08,20,10,13,24.40
2009,08,20,10,14,24.40
2009,08,20,10,15,24.40
2009,08,20,10,16,24.40
2009,08,20,10,17,24.40
2009,08,20,10,18,24.40
2009,08,20,10,19,24.30
2009,08,20,10,20,24.30
2009,08,20,10,21,24.40
2009,08,20,10,22,24.40
2009,08,20,10,23,24.40
2009,08,20,10,24,24.50
2009,08,20,10,25,24.50
2009,08,20,10,26,24.50
2009,08,20,10,27,24.60
2009,08,20,10,28,24.60
2009,08,20,10,29,24.70
2009,08,20,10,30,24.80
2009,08,20,10,31,24.90
2009,08,20,10,32,25.00
2009,08,20,10,33,25.00
2009,08,20,10,34,25.00
2009,08,20,10,35,25.00
2009,08,20,10,36,25.10
2009,08,20,10,37,25.20
2009,08,20,10,38,25.20
2009,08,20,10,39,25.40
2009,08,20,10,40,25.50
2009,08,20,10,41,25.60
2009,08,20,10,42,25.50
2009,08,20,10,43,25.40
2009,08,20,10,44,25.30
2009,08,20,10,45,25.30
2009,08,20,10,46,25.30
2009,08,20,10,47,25.30
2009,08,20,10,48,25.30
2009,08,20,10,49,25.30
2009,08,20,10,50,25.30
2009,08,20,10,51,25.30
2009,08,20,10,52,25.30
2009,08,20,10,53,25.30
2009,08,20,10,54,25.30
2009,08,20,10,55,25.30
2009,08,20,10,56,25.30
2009,08,20,10,57,25.30
2009,08,20,10,58,25.30
2009,08,20,10,59,25.40
2009,08,20,11,00,25.50
2009,08,20,11,01,25.60
2009,08,20,11,02,25.60
2009,08,20,11,03,25.70
2009,08,20,11,04,25.80
2009,08,20,11,05,25.80
2009,08,20,11,06,25.90
2009,08,20,11,07,25.90
2009,08,20,11,08,25.90
2009,08,20,11,09,25.90
2009,08,20,11,10,25.90
2009,08,20,11,11,25.90
2009,08,20,11,12,25.90
2009,08,20,11,13,26.00
2009,08,20,11,14,26.10
2009,08,20,11,15,26.20
2009,08,20,11,16,26.30
2009,08,20,11,17,26.30
2009,08,20,11,18,26.30
2009,08,20,11,19,26.40
2009,08,20,11,20,26.50
2009,08,20,11,21,26.60
2009,08,20,11,22,26.60
2009,08,20,11,23,26.60
2009,08,20,11,24,26.60
2009,08,20,11,25,26.60
2009,08,20,11,26,26.60
2009,08,20,11,27,26.60
2009,08,20,11,28,26.60
2009,08,20,11,29,26.60
2009,08,20,11,30,26.50
2009,08,20,11,31,26.40
2009,08,20,11,32,26.40
2009,08,20,11,33,26.40
2009,08,20,11,34,26.40
2009,08,20,11,35,26.40
2009,08,20,11,36,26.40
2009,08,20,11,37,26.40
2009,08,20,11,38,26.40
2009,08,20,11,39,26.50
2009,08,20,11,40,26.50
2009,08,20,11,41,26.40
2009,08,20,11,42,26.30
2009,08,20,11,43,26.40
2009,08,20,11,44,26.50
2009,08,20,11,45,26.60
2009,08,20,11,46,26.70
2009,08,20,11,47,26.80
2009,08,20,11,48,26.80
2009,08,20,11,49,26.90
2009,08,20,11,50,27.00
2009,08,20,11,51,27.10
2009,08,20,11,52,27.20
2009,08,20,11,53,27.30
2009,08,20,11,54,27.20
2009,08,20,11,55,27.10
2009,08,20,11,56,26.90
2009,08,20,11,57,26.70
2009,08,20,11,58,26.60
2009,08,20,11,59,26.60
2009,08,20,12,00,26.70
2009,08,20,12,01,26.70
2009,08,20,12,02,26.70
2009,08,20,12,03,26.70
2009,08,20,12,04,26.80
2009,08,20,12,05,26.80
2009,08,20,12,06,26.90
2009,08,20,12,07,27.00
2009,08,20,12,08,26.90
2009,08,20,12,09,26.90
2009,08,20,12,10,26.80
2009,08,20,12,11,26.70
2009,08,20,12,12,26.60
2009,08,20,12,13,26.60
2009,08,20,12,14,26.60
2009,08,20,12,15,26.50
2009,08,20,12,16,26.40
2009,08,20,12,17,26.40
2009,08,20,12,18,26.40
2009,08,20,12,19,26.30
2009,08,20,12,20,26.20
2009,08,20,12,21,26.20
2009,08,20,12,22,26.10
2009,08,20,12,23,26.10
2009,08,20,12,24,26.10
2009,08,20,12,25,26.00
2009,08,20,12,26,26.00
2009,08,20,12,27,26.10
2009,08,20,12,28,26.20
2009,08,20,12,29,26.30
2009,08,20,12,30,26.30
2009,08,20,12,31,26.30
2009,08,20,12,32,26.30
2009,08,20,12,33,26.30
2009,08,20,12,34,26.30
2009,08,20,12,35,26.40
2009,08,20,12,36,26.50
2009,08,20,12,37,26.50
2009,08,20,12,38,26.50
2009,08,20,12,39,26.50
2009,08,20,12,40,26.50
2009,08,20,12,41,26.40
2009,08,20,12,42,26.40
2009,08,20,12,43,26.40
2009,08,20,12,44,26.40
2009,08,20,12,45,26.30
2009,08,20,12,46,26.40
2009,08,20,12,47,26.50
2009,08,20,12,48,26.50
2009,08,20,12,49,26.60
2009,08,20,12,50,26.60
2009,08,20,12,51,26.50
2009,08,20,12,52,26.50
2009,08,20,12,53,26.60
2009,08,20,12,54,26.60
2009,08,20,12,55,26.60
2009,08,20,12,56,26.60
2009,08,20,12,57,26.70
2009,08,20,12,58,26.70
2009,08,20,12,59,26.80
2009,08,20,13,00,26.70
2009,08,20,13,01,26.70
2009,08,20,13,02,26.70
2009,08,20,13,03,26.80
2009,08,20,13,04,26.80
2009,08,20,13,05,26.80
2009,08,20,13,06,26.70
2009,08,20,13,07,26.70
2009,08,20,13,08,26.70
2009,08,20,13,09,26.70
2009,08,20,13,10,26.80
2009,08,20,13,11,26.90
2009,08,20,13,12,27.00
2009,08,20,13,13,27.10
2009,08,20,13,14,27.10
2009,08,20,13,15,27.10
2009,08,20,13,16,27.10
2009,08,20,13,17,27.20
2009,08,20,13,18,27.20
2009,08,20,13,19,27.20
2009,08,20,13,20,27.20
2009,08,20,13,21,27.20
2009,08,20,13,22,27.20
2009,08,20,13,23,27.10
2009,08,20,13,24,27.10
2009,08,20,13,25,27.10
2009,08,20,13,26,27.00
2009,08,20,13,27,26.90
2009,08,20,13,28,26.80
2009,08,20,13,29,26.80
2009,08,20,13,30,26.90
2009,08,20,13,31,27.00
2009,08,20,13,32,27.10
2009,08,20,13,33,27.10
2009,08,20,13,34,27.30
2009,08,20,13,35,27.40
2009,08,20,13,36,27.50
2009,08,20,13,37,27.50
2009,08,20,13,38,27.60
2009,08,20,13,39,27.50
2009,08,20,13,40,27.40
2009,08,20,13,41,27.50
2009,08,20,13,42,27.50
2009,08,20,13,43,27.60
2009,08,20,13,44,27.50
2009,08,20,13,45,27.50
2009,08,20,13,46,27.50
2009,08,20,13,47,27.60
2009,08,20,13,48,27.70
2009,08,20,13,49,27.70
2009,08,20,13,50,27.80
2009,08,20,13,51,27.70
2009,08,20,13,52,27.60
2009,08,20,13,53,27.70
2009,08,20,13,54,27.70
2009,08,20,13,55,27.70
2009,08,20,13,56,27.60
2009,08,20,13,57,27.40
2009,08,20,13,58,27.40
2009,08,20,13,59,27.40
2009,08,20,14,00,27.40
2009,08,20,14,01,27.50
2009,08,20,14,02,27.50
2009,08,20,14,03,27.50
2009,08,20,14,04,27.40
2009,08,20,14,05,27.30
2009,08,20,14,06,27.20
2009,08,20,14,07,27.20
2009,08,20,14,08,27.20
2009,08,20,14,09,27.30
2009,08,20,14,10,27.40
2009,08,20,14,11,27.50
2009,08,20,14,12,27.50
2009,08,20,14,13,27.50
2009,08,20,14,14,27.20
2009,08,20,14,15,27.00
2009,08,20,14,16,26.90
2009,08,20,14,17,26.80
2009,08,20,14,18,26.80
2009,08,20,14,19,26.80
2009,08,20,14,20,26.80
2009,08,20,14,21,26.70
2009,08,20,14,22,26.60
2009,08,20,14,23,26.50
2009,08,20,14,24,26.60
2009,08,20,14,25,26.50
2009,08,20,14,26,26.50
2009,08,20,14,27,26.40
2009,08,20,14,28,26.30
2009,08,20,14,29,26.30
2009,08,20,14,30,26.20
2009,08,20,14,31,26.20
2009,08,20,14,32,26.20
2009,08,20,14,33,26.20
2009,08,20,14,34,26.20
2009,08,20,14,35,26.20
2009,08,20,14,36,26.20
2009,08,20,14,37,26.20
2009,08,20,14,38,26.30
2009,08,20,14,39,26.30
2009,08,20,14,40,26.20
2009,08,20,14,41,26.20
2009,08,20,14,42,26.20
2009,08,20,14,43,26.20
2009,08,20,14,44,26.10
2009,08,20,14,45,26.00
2009,08,20,14,46,25.90
2009,08,20,14,47,25.90
2009,08,20,14,48,25.90
2009,08,20,14,49,25.90
2009,08,20,14,50,25.90
2009,08,20,14,51,25.90
2009,08,20,14,52,26.00
2009,08,20,14,53,26.00
2009,08,20,14,54,25.90
2009,08,20,14,55,25.90
2009,08,20,14,56,25.90
2009,08,20,14,57,25.90
2009,08,20,14,58,26.00
2009,08,20,14,59,26.00
2009,08,20,15,00,26.00
2009,08,20,15,01,26.10
2009,08,20,15,02,26.10
2009,08,20,15,03,26.20
2009,08,20,15,04,26.20
2009,08,20,15,05,26.30
2009,08,20,15,06,26.30
2009,08,20,15,07,26.30
2009,08,20,15,08,26.20
2009,08,20,15,09,26.10
2009,08,20,15,10,26.00
2009,08,20,15,11,25.90
2009,08,20,15,12,25.90
2009,08,20,15,13,25.90
2009,08,20,15,14,25.90
2009,08,20,15,15,25.80
2009,08,20,15,16,25.80
2009,08,20,15,17,25.70
2009,08,20,15,18,25.70
2009,08,20,15,19,25.70
2009,08,20,15,20,25.60
2009,08,20,15,21,25.50
2009,08,20,15,22,25.40
2009,08,20,15,23,25.40
2009,08,20,15,24,25.40
2009,08,20,15,25,25.40
2009,08,20,15,26,25.30
2009,08,20,15,27,25.40
2009,08,20,15,28,25.40
2009,08,20,15,29,25.40
2009,08,20,15,30,25.50
2009,08,20,15,31,25.50
2009,08,20,15,32,25.60
2009,08,20,15,33,25.60
2009,08,20,15,34,25.70
2009,08,20,15,35,25.70
2009,08,20,15,36,25.60
2009,08,20,15,37,25.40
2009,08,20,15,38,25.30
2009,08,20,15,39,25.30
2009,08,20,15,40,25.30
2009,08,20,15,41,25.20
2009,08,20,15,42,25.20
2009,08,20,15,43,25.20
2009,08,20,15,44,25.20
2009,08,20,15,45,25.30
2009,08,20,15,46,25.30
2009,08,20,15,47,25.30
2009,08,20,15,48,25.30
2009,08,20,15,49,25.30
2009,08,20,15,50,25.20
2009,08,20,15,51,25.20
2009,08,20,15,52,25.20
2009,08,20,15,53,25.20
2009,08,20,15,54,25.10
2009,08,20,15,55,25.00
2009,08,20,15,56,24.90
2009,08,20,15,57,24.90
2009,08,20,15,58,24.90
2009,08,20,15,59,24.90
2009,08,20,16,00,24.90
2009,08,20,16,01,25.00
2009,08,20,16,02,25.10
2009,08,20,16,03,25.10
2009,08,20,16,04,25.10
2009,08,20,16,05,25.10
2009,08,20,16,06,25.10
2009,08,20,16,07,25.00
2009,08,20,16,08,24.90
2009,08,20,16,09,24.90
2009,08,20,16,10,24.80
2009,08,20,16,11,24.70
2009,08,20,16,12,24.60
2009,08,20,16,13,24.70
2009,08,20,16,14,24.70
2009,08,20,16,15,24.80
2009,08,20,16,16,24.80
2009,08,20,16,17,24.90
2009,08,20,16,18,25.00
2009,08,20,16,19,25.00
2009,08,20,16,20,25.10
2009,08,20,16,21,25.10
2009,08,20,16,22,25.10
2009,08,20,16,23,25.10
2009,08,20,16,24,25.10
2009,08,20,16,25,25.20
2009,08,20,16,26,25.30
2009,08,20,16,27,25.30
2009,08,20,16,28,25.30
2009,08,20,16,29,25.40
2009,08,20,16,30,25.50
2009,08,20,16,31,25.40
2009,08,20,16,32,25.40
2009,08,20,16,33,25.40
2009,08,20,16,34,25.40
2009,08,20,16,35,25.50
2009,08,20,16,36,25.60
2009,08,20,16,37,25.50
2009,08,20,16,38,25.40
2009,08,20,16,39,25.40
2009,08,20,16,40,25.40
2009,08,20,16,41,25.40
2009,08,20,16,42,25.50
2009,08,20,16,43,25.50
2009,08,20,16,44,25.50
2009,08,20,16,45,25.60
2009,08,20,16,46,25.60
2009,08,20,16,47,25.60
2009,08,20,16,48,25.50
2009,08,20,16,49,25.40
2009,08,20,16,50,25.30
2009,08,20,16,51,25.30
2009,08,20,16,52,25.30
2009,08,20,16,53,25.40
2009,08,20,16,54,25.40
2009,08,20,16,55,25.50
2009,08,20,16,56,25.60
2009,08,20,16,57,25.70
2009,08,20,16,58,25.70
2009,08,20,16,59,25.60
2009,08,20,17,00,25.60
2009,08,20,17,01,25.70
2009,08,20,17,02,25.70
2009,08,20,17,03,25.70
2009,08,20,17,04,25.70
2009,08,20,17,05,25.70
2009,08,20,17,06,25.60
2009,08,20,17,07,25.60
2009,08,20,17,08,25.60
2009,08,20,17,09,25.60
2009,08,20,17,10,25.70
2009,08,20,17,11,25.80
2009,08,20,17,12,25.80
2009,08,20,17,13,25.80
2009,08,20,17,14,25.80
2009,08,20,17,15,25.80
2009,08,20,17,16,25.80
2009,08,20,17,17,25.80
2009,08,20,17,18,25.80
2009,08,20,17,19,25.80